Wind_Speed
17 20 23 25 23 21 23 23 25 24 24 26 27 28 29 30 31 32 36 34 36 33
17 19 21 24 21 23 23 23 27 29 29 28 30 28 29 30 31 31 36 38 36 37
18 20 21 21 20 23 22 22 21 23 28 31 29 31 31 30 29 31 36 39 35 35
18 19 18 20 20 23 21 19 18 19 22 28 28 29 31 29 29 33 32 38 34 39
19 18 20 21 21 23 21 16 16 14 21 27 29 30 29 29 30 31 37 34 36 38
16 17 18 18 19 19 21 17 14 11 10 8 20 31 31 32 30 31 37 37 36 35
11 12 13 14 16 18 18 16 12 10 9 7 11 16 32 33 30 32 32 33 36 36
11 8 7 8 11 16 16 13 9 3 5 5 13 14 23 30 31 28 23 32 34 31
10 7 6 5 7 14 14 12 8 5 6 8 15 5 20 29 27 28 28 27 29 31
12 7 5 4 9 16 15 12 10 4 1 1 12 11 16 22 24 23 26 28 26 28
13 8 6 4 6 16 12 13 14 9 5 9 9 17 23 25 25 25 23 26 26 30
10 9 8 9 11 9 9 9 6 14 7 5 10 10 19 28 27 27 24 23 26 28
10 9 9 11 15 15 14 15 15 13 6 5 10 11 13 18 21 24 23 20 20 21
9 10 10 16 18 20 20 23 22 24 23 15 12 11 11 11 16 22 22 21 18 18
Wind_Direction
253 250 252 255 258 258 257 251 250 250 248 242 240 236 237 235 230 221 215 217 209 202
256 253 254 252 253 264 255 254 257 252 249 242 238 235 234 233 234 226 215 217 205 203
259 261 259 260 253 261 254 261 257 255 252 245 242 239 240 237 231 228 220 215 205 200
274 262 250 250 256 257 249 255 258 256 263 255 246 236 233 232 225 218 220 213 206 202
271 261 257 260 260 257 239 253 252 275 274 258 249 242 234 231 226 219 217 208 201 202
276 262 262 264 262 260 240 241 246 280 268 277 255 241 236 227 221 221 211 206 200 196
305 282 269 265 263 249 230 231 238 247 277 319 315 270 228 216 218 213 213 206 199 192
333 323 307 284 260 228 211 219 199 232 280 19 335 267 216 208 203 201 193 189 193 192
346 345 339 338 226 196 180 180 192 266 308 47 13 259 203 196 188 183 181 176 179 185
356 7 11 23 188 175 182 191 183 155 9 199 20 77 162 163 163 158 161 166 162 159
356 5 42 101 138 171 191 198 200 175 198 116 82 68 101 121 122 130 131 142 152 146
8 17 47 75 105 128 118 110 97 175 181 129 102 94 82 90 95 102 103 119 127 136
29 39 52 82 102 103 102 92 92 130 169 154 140 117 109 115 119 112 115 118 128 138
54 59 70 88 96 94 85 83 77 78 73 93 118 137 140 139 134 130 117 117 125 137
Height
744 744 743 743 743 741 741 740 741 742 742 742 742 744 746 746 747 750 753 757 761 765
738 737 736 736 736 735 734 734 734 734 735 735 735 737 738 738 740 743 745 750 754 758
732 730 729 729 729 728 727 727 728 727 727 726 727 728 731 731 732 736 738 743 745 751
727 724 723 723 722 722 721 721 722 721 720 719 718 719 721 723 725 727 731 735 739 743
721 719 717 717 717 716 715 717 717 715 713 711 710 711 712 715 718 720 724 727 731 738
716 713 712 711 711 710 710 712 713 711 709 704 702 702 703 706 710 712 716 720 725 730
713 709 707 706 705 704 705 709 710 709 706 703 698 695 694 698 703 706 710 713 718 724
710 707 704 702 701 701 703 706 708 707 704 701 695 689 688 692 697 701 707 710 715 721
709 706 704 700 698 699 703 706 707 706 704 699 695 687 686 688 692 698 703 708 711 718
709 706 703 700 700 701 704 706 706 705 704 701 698 690 687 689 693 696 700 706 710 714
710 707 703 701 701 702 704 705 705 705 705 704 702 698 693 692 694 700 705 704 712 712
713 709 705 703 702 704 704 704 704 705 707 707 705 705 702 701 703 705 708 712 714 719
715 712 710 706 705 706 706 706 706 707 708 708 707 709 709 710 712 713 717 721 724 729
717 716 713 710 709 709 710 710 710 710 710 709 710 712 713 715 717 720 723 727 731 735